EW3027 Weather Reports


Display with metric or nautical units.
time (UTC)temp
F
wind
direction
speed
MPH
gust
MPH
rain 1hr
in
rain 24hr
in
rain mn
in
humidity
%
barometer
mb
20260506062316 55 0.0 0.0 0.00 0.00 0.00 88 1016.6
20260506061316 56 0.0 0.0 0.00 0.00 0.00 88 1016.5
20260506060356 56 0.0 0.0 0.00 0.00 0.00 88 1016.3
20260506051316 57 0.0 0.0 0.00 0.00 0.00 86 1015.8
20260506050316 58 0.0 0.0 0.00 0.00 0.00 85 1015.8
20260506044316 58 0.0 0.0 0.00 0.00 0.00 84 1015.6
20260506043316 59 0.0 0.0 0.00 0.00 0.00 84 1015.5
20260506042316 59 0.0 0.0 0.00 0.00 0.00 83 1015.5
20260506041356 60 0.0 0.0 0.00 0.00 0.00 82 1015.3
20260506040316 60 225 1.0 1.0 0.00 0.00 0.00 81 1015.2
20260506035316 61 0.0 0.0 0.00 0.00 0.00 80 1015.1
20260506034316 62 0.0 0.0 0.00 0.00 0.00 77 1014.9
20260506033356 63 0.0 0.0 0.00 0.00 0.00 76 1014.8
20260506032316 63 0.0 0.0 0.00 0.00 0.00 75 1014.7
20260506031316 64 0.0 0.0 0.00 0.00 0.00 74 1014.7
20260506030336 64 0.0 0.0 0.00 0.00 0.00 73 1014.7
20260506025316 65 0.0 0.0 0.00 0.00 0.00 72 1014.6
20260506024316 65 0.0 0.0 0.00 0.00 0.00 72 1014.4
20260506023316 66 0.0 0.0 0.00 0.00 0.00 70 1014.4
20260506022316 67 0.0 0.0 0.00 0.00 0.00 67 1014.3
20260506021336 66 0.0 0.0 0.00 0.00 0.00 69 1014.3
20260506020316 66 0.0 0.0 0.00 0.00 0.00 68 1014.3
20260506015316 67 0.0 0.0 0.00 0.00 0.00 68 1014.2
20260506014316 67 0.0 0.0 0.00 0.00 0.00 68 1014.2
20260506013316 67 0.0 0.0 0.00 0.00 0.00 67 1014.2
20260506012318 68 0.0 0.0 0.00 0.00 0.00 65 1014.2
20260506011316 68 0.0 0.0 0.00 0.00 0.00 66 1014.2
20260506010318 66 0.0 0.0 0.00 0.00 0.00 68 1014.1
20260506005336 67 0.0 0.0 0.00 0.00 0.00 68 1014.1
20260506004318 66 0.0 0.0 0.00 0.00 0.00 67 1014.2
20260506003318 66 0.0 0.0 0.00 0.00 0.00 67 1014.3
20260506002317 66 0.0 0.0 0.00 0.00 0.00 67 1014.3
20260506001318 66 0.0 0.0 0.00 0.00 0.00 67 1014.2
20260506000318 67 0.0 0.0 0.00 0.00 0.00 66 1014.2
20260505235318 66 0.0 0.0 0.00 0.00 0.00 66 1014.4
20260505234318 65 0.0 0.0 0.00 0.00 0.00 67 1014.4
20260505233318 66 0.0 0.0 0.00 0.00 0.00 67 1014.4
20260505232318 65 0.0 0.0 0.00 0.00 0.00 68 1014.7
20260505231338 65 0.0 0.0 0.00 0.00 0.00 66 1014.7
20260505230318 66 0.0 0.0 0.00 0.00 0.00 66 1014.8
20260505225318 65 0.0 0.0 0.00 0.00 0.00 67 1014.8
20260505224318 66 0.0 0.0 0.00 0.00 0.00 66 1015.0
20260505223318 64 315 1.0 2.0 0.00 0.00 0.00 68 1015.1
20260505222318 64 293 1.0 3.0 0.00 0.00 0.00 69 1015.2
20260505221338 63 0.0 1.0 0.00 0.00 0.00 70 1015.3
20260505220318 64 45 2.0 3.0 0.00 0.00 0.00 69 1015.3
20260505215318 63 248 1.0 2.0 0.00 0.00 0.00 70 1015.3
20260505214358 63 338 1.0 1.0 0.00 0.00 0.00 70 1015.5
20260505213318 63 315 1.0 2.0 0.00 0.00 0.00 70 1015.5
20260505212317 62 23 2.0 4.0 0.00 0.00 0.00 70 1015.5
20260505211317 62 0.0 0.0 0.00 0.00 0.00 72 1015.4
20260505210317 62 0.0 0.0 0.00 0.00 0.00 73 1015.5
20260505205318 61 270 1.0 2.0 0.00 0.00 0.00 72 1015.6
20260505204318 61 45 1.0 2.0 0.00 0.00 0.00 72 1015.5
20260505203317 61 23 3.0 4.0 0.00 0.00 0.00 72 1015.6
20260505202318 60 0.0 0.0 0.00 0.00 0.00 74 1015.7
20260505201318 60 0.0 1.0 0.00 0.00 0.00 74 1015.8
20260505200317 61 0.0 0.0 0.00 0.00 0.00 73 1015.7
20260505195358 61 0.0 0.0 0.00 0.00 0.00 73 1015.8
20260505194317 60 0.0 0.0 0.00 0.00 0.00 74 1015.8
20260505193317 60 225 1.0 1.0 0.00 0.00 0.00 75 1015.8
20260505192318 60 0.0 0.0 0.00 0.00 0.00 75 1015.8
20260505191318 59 0.0 0.0 0.00 0.00 0.00 75 1015.7
20260505190338 59 0.0 2.0 0.00 0.00 0.00 76 1015.8
20260505185318 58 0.0 1.0 0.00 0.00 0.00 77 1015.8
20260505184317 58 293 1.0 1.0 0.00 0.00 0.00 77 1015.8
20260505183337 58 0.0 1.0 0.00 0.00 0.00 76 1015.8
20260505182317 58 0.0 0.0 0.00 0.00 0.00 77 1015.7
20260505181317 58 0.0 1.0 0.00 0.00 0.00 78 1015.6
20260505180317 58 0.0 0.0 0.00 0.00 0.00 78 1015.6
20260505175338 58 0.0 0.0 0.00 0.00 0.00 78 1015.6
20260505174317 58 0.0 0.0 0.00 0.00 0.00 79 1015.6
20260505173317 57 0.0 0.0 0.00 0.00 0.00 80 1015.6
20260505172317 57 0.0 0.0 0.00 0.00 0.00 80 1015.5
20260505171317 57 0.0 0.0 0.00 0.00 0.00 81 1015.4
20260505170317 56 0.0 0.0 0.00 0.00 0.00 81 1015.4
20260505165317 56 0.0 0.0 0.00 0.00 0.00 81 1015.4
20260505164338 56 0.0 0.0 0.00 0.00 0.00 81 1015.4
20260505163317 56 0.0 0.0 0.00 0.00 0.00 82 1015.4
20260505162337 55 0.0 0.0 0.00 0.00 0.00 81 1015.4
20260505161317 55 0.0 0.0 0.00 0.00 0.00 82 1015.5
20260505160317 55 0.0 0.0 0.00 0.00 0.00 82 1015.5
20260505153317 55 0.0 0.0 0.00 0.00 0.00 84 1015.6
20260505152317 55 0.0 0.0 0.00 0.00 0.00 84 1015.6
20260505151317 55 0.0 0.0 0.00 0.00 0.00 84 1015.3
20260505150337 54 0.0 0.0 0.00 0.00 0.00 85 1015.4
20260505140317 53 0.0 0.0 0.00 0.00 0.00 87 1015.3
20260505124317 53 0.0 0.0 0.00 0.00 0.00 87 1014.9
20260505123317 53 0.0 0.0 0.00 0.00 0.00 88 1014.8
20260505122317 53 0.0 0.0 0.00 0.00 0.00 88 1014.6
20260505121317 53 0.0 0.0 0.00 0.00 0.00 88 1014.5
20260505120317 53 0.0 0.0 0.00 0.00 0.00 88 1014.5
20260505115317 53 0.0 0.0 0.00 0.00 0.00 88 1014.5
20260505114317 53 0.0 0.0 0.00 0.00 0.00 89 1014.6
20260505113317 53 0.0 0.0 0.00 0.00 0.00 89 1014.7
20260505112316 53 0.0 0.0 0.00 0.00 0.00 89 1014.8
20260505111317 53 0.0 0.0 0.00 0.00 0.00 89 1014.7
20260505110317 53 0.0 0.0 0.00 0.00 0.00 89 1014.5
20260505101317 53 0.0 0.0 0.00 0.00 0.00 89 1014.3
20260505100358 53 0.0 0.0 0.00 0.00 0.00 89 1014.2
20260505095317 53 0.0 0.0 0.00 0.00 0.00 89 1014.3
20260505094317 53 0.0 0.0 0.00 0.00 0.00 89 1014.2
20260505093317 54 0.0 0.0 0.00 0.00 0.00 89 1014.1
20260505092317 54 0.0 1.0 0.00 0.00 0.00 89 1014.2
20260505091316 54 0.0 0.0 0.00 0.00 0.00 89 1014.2
20260505090317 54 0.0 0.0 0.00 0.00 0.00 88 1014.1
20260505085317 54 0.0 0.0 0.00 0.00 0.00 88 1014.1
20260505084317 54 0.0 0.0 0.00 0.00 0.00 88 1014.1
20260505083316 54 0.0 0.0 0.00 0.00 0.00 88 1014.2
20260505082317 54 0.0 0.0 0.00 0.00 0.00 87 1014.1
20260505081316 54 0.0 0.0 0.00 0.00 0.00 87 1014.1
20260505080317 54 0.0 0.0 0.00 0.00 0.00 87 1014.2
20260505075317 54 0.0 0.0 0.00 0.00 0.00 87 1014.2
20260505074317 54 0.0 0.0 0.00 0.00 0.00 86 1014.2
20260505073337 55 0.0 0.0 0.00 0.00 0.00 86 1014.3
20260505072316 55 0.0 0.0 0.00 0.00 0.00 85 1014.2
20260505071316 55 0.0 0.0 0.00 0.00 0.00 85 1014.2
20260505070336 55 0.0 1.0 0.00 0.00 0.00 84 1014.1